Regional Weather Roundup
Issued by NWS

Current Version | Previous Version | Text Only | Print | Product List | Glossary Off
Versions: 1 2 3 4 5 6 7 8 9 10 11 12 13 14 15 16 17 18 19 20 21 22 23 24 25 26 27

000
ASUS44 KBMX 202010
RWRAL

ALABAMA REGIONAL WEATHER ROUNDUP
NATIONAL WEATHER SERVICE BIRMINGHAM AL
300 PM CDT SUN APR 20 2014

NOTE: "FAIR" INDICATES FEW OR NO CLOUDS BELOW 12,000 FEET
WITH NO SIGNIFICANT WEATHER AND/OR OBSTRUCTIONS TO VISIBILITY.

THE REMARK "TC" DENOTES TEMPERATURE IN DEGREES CELSIUS.

ALZ001>011-014-016>018-020-202100-
NORTH ALABAMA

CITY           SKY/WX    TMP DP  RH WIND       PRES   REMARKS
MUSCLE SHOALS  SUNNY     77  46  33 W3        30.17F
HUNTSVILLE     MOSUNNY   78  45  30 CALM      30.16F
DECATUR        SUNNY     76  47  35 S7        30.17F
HALEYVILLE     FAIR      77  44  30 S6        30.18F
GADSDEN        NOT AVBL
$$

ALZ012-013-022-023-030>036-040>044-202100-
WEST CENTRAL ALABAMA

CITY           SKY/WX    TMP DP  RH WIND       PRES   REMARKS
TUSCALOOSA     SUNNY     76  44  32 VRB5      30.15F
$$

ALZ015-024>027-033>036-040>044-202100-
CENTRAL ALABAMA

CITY           SKY/WX    TMP DP  RH WIND       PRES   REMARKS
BIRMINGHAM     MOSUNNY   79  41  25 VRB7      30.17F
MONTGOMERY     SUNNY     75  52  44 VRB5      30.15F
SHELBY CO ARPT SUNNY     75  44  33 VRB5      30.16F
MAXWELL AFB    SUNNY     78  58  50 NE8       30.14F
GREENVILLE     FAIR      70  52  52 E7        30.15F
$$

ALZ019-021-028-029-037-038-045>048-202100-
EAST CENTRAL ALABAMA

CITY           SKY/WX    TMP DP  RH WIND       PRES   REMARKS
ANNISTON       SUNNY     76  45  33 E8        30.15F
ALEXANDER CITY SUNNY     76  41  28 CALM      30.17F
AUBURN         SUNNY     72  48  43 N10       30.18F
$$

ALZ051>064-202100-
SOUTHWEST ALABAMA

CITY           SKY/WX    TMP DP  RH WIND       PRES   REMARKS
MOBILE         MOSUNNY   73  55  53 NE12      30.15F
BROOKLEY FIELD MOSUNNY   71  54  54 N10       30.16F
EVERGREEN      MOSUNNY   69  53  56 VRB7      30.17F
$$

ALZ049-050-065>069-202100-
SOUTHEAST ALABAMA

CITY           SKY/WX    TMP DP  RH WIND       PRES   REMARKS
DOTHAN         CLOUDY    62  52  69 NE10      30.19F
OZARK          CLOUDY    62  53  71 NE9       30.17F
TROY           PTSUNNY   70  52  52 NE10G23   30.16F
EUFAULA        CLOUDY    68  53  58 NE5       30.15F
$$



USA.gov is the U.S. government's official web portal to all federal, state and local government web resources and services.